Regional Weather Roundup
Issued by NWS Newport/Morehead, NC

Current Version | Previous Version | Text Only | Print | Product List | Glossary On
Versions: 1 2 3 4 5 6 7 8 9 10 11 12 13 14 15 16 17 18 19 20 21 22 23 24 25 26 27 28 29 30 31 32 33 34 35 36 37 38 39 40 41 42 43 44 45 46 47 48 49 50
136 ASUS42 KMHX 200513 RWRMHX WEATHER ROUNDUP FOR EASTERN NORTH CAROLINA NATIONAL WEATHER SERVICE NEWPORT/MOREHEAD CITY NC 1200 AM EST FRI JAN 20 2017 NOTE: "FAIR" INDICATES FEW OR NO CLOUDS BELOW 12,000 FEET WITH NO SIGNIFICANT WEATHER AND/OR OBSTRUCTIONS TO VISIBILITY NCZ015>017-031-032-045>047-102-103-200600- NORTH COAST CITY SKY/WX TMP DP RH WIND PRES REMARKS EDENTON CLEAR 44 42 93 CALM 30.03F ELIZABETH CITY PTCLDY 41 40 96 CALM 30.03F KITTY HAWK NOT AVBL MANTEO FOG 38 38 100 NE3 30.03F VSB 1/4 $$ NCZ045>047-081-094-103-104-200600- CENTRAL COAST CITY SKY/WX TMP DP RH WIND PRES REMARKS FRISCO PTCLDY 45 42 89 E5 30.01F $$ NCZ095-097-098-100-101-200600- SOUTHERN COAST CITY SKY/WX TMP DP RH WIND PRES REMARKS BEAUFORT PTCLDY 45 44 97 CALM 30.02R CEDAR ISLAND NOT AVBL JACKSONVILLE NOT AVBL PINEY ISLAND PTCLDY N/A N/A N/A CALM 30.02S WILMINGTON PTCLDY 44 43 96 CALM 30.00F $$ NCZ011>013-027>030-043-044-078>080-089-090>093-098-200600- COASTAL PLAIN CITY SKY/WX TMP DP RH WIND PRES REMARKS AHOSKIE N/A 41 39 95 CALM 30.02S CLINTON PTCLDY 46 45 97 CALM 30.01S ELIZABETHTOWN CLEAR 46 44 93 CALM 30.00F GOLDSBORO CLOUDY 47 47 99 CALM 30.00R GREENVILLE PTCLDY 43 43 100 CALM 30.03S HAVELOCK PTCLDY 42 39 89 CALM 30.02S KENANSVILLE CLOUDY 43 43 100 CALM 30.03R KINSTON CLOUDY 42 41 95 CALM 30.03R NEW BERN PTCLDY 42 40 92 CALM 30.02S RICHLANDS PTCLDY 42 41 96 CALM 30.02R ROCKY MOUNT CLOUDY 41 41 100 CALM 30.01S WASHINGTON CLOUDY 42 41 97 E3 N/A WHITEVILLE PTCLDY 46 44 91 CALM 29.99F $$ AMZ130-135-150-152-154-156-158-170-250-252-270-ANZ085-086-088-633-658-670-200600- MARINE OBSERVATIONS STATION/POSITION TIME TEMP WIND PRES WAVE SWELL AIR SEA DIR/SP/G HT/PER HT/PER (UTC) (F) (DEG/KT/KT) (MB) (FT/S) (FT/S) CHESAPEAKE LIGHT NOT AVBL 64 E VA BEACH 0450 50 56 40/ 8/ 10 1016.6 5/11 5/11 DUCK 0448 45 45 190/ 4/ 5 1016.3 2 E DUCK 0500 45 N/A 5/10 2/11 OREGON INLET 0442 44 49 CALM / 1 1016.9 13E OREGON INLT NOT AVBL HATTERAS CG 0448 48 55 70/ 4/ 5 1015.6 DIAMOND BUOY 0450 56 76 30/ 8/ 10 1016.1 4/ 9 3/ 9 CAPE LOOKOUT 0500 58 110/ 3/ 5 1016.0 BEAUFORT LAB 0448 49 51 40/ 2/ 4 1015.4 30 SE NEW RVR IN 0408 59 62 110/ 8/ 12 1015.9 30 SE NEW RVR IN 0443 62 N/A 2/ 8 27 SE WRIGHTSVLE 0408 62 71 110/ 8/ 12 1015.4 5 SE WRIGHTSVLE NOT AVBL 225 S CAPE HAT 0450 67 71 40/ 4/ 6 1015.5 5/10 5/10 41 SE CHARLESTON 0450 69 71 80/ 10/ 12 1013.8 3/10 2/10 $$

USA.gov is the U.S. government's official web portal to all federal, state and local government web resources and services.